Glasgow, United Kingdom

9:02 AM GMT on February 08, 2016 (GMT +0000)
Glasgow

Weather History for EGPF - January, 2013

Change the Weather History Date:

Saturday, January 19, 2013

  Actual Average Record
Temperature  
Mean Temperature 36 °F -  
Max Temperature 39 °F 44 °F 53 °F (2004)
Min Temperature 32 °F 32 °F 23 °F (2015)
Degree Days  
Heating Degree Days 30    
Moisture  
Dew Point 29 °F    
Average Humidity 81    
Maximum Humidity 87    
Minimum Humidity 75    
Precipitation  
Precipitation 0.00 in - - ()
Sea Level Pressure  
Sea Level Pressure 29.65 in    
Wind  
Wind Speed 10 mph ()    
Max Wind Speed 15 mph    
Max Gust Speed -    
Visibility 6.2 miles    
Events Rain , Snow    
Averages and records for this station are not official NWS values.
T = Trace of Precipitation, MM = Missing Value Source: Averaged Metar Reports

Daily Weather History Graph

Daily Weather History Graph

Search for Another Location

Airport or City:

Trip Planner

Search our weather history database for the weather conditions in past years. The results will help you decide how hot, cold, wet, or windy it might be!

Date:

Astronomy

Jan. 19, 2013 Rise Set
Actual Time 8:33 AM GMT 4:24 PM GMT
Civil Twilight 7:49 AM GMT 5:08 PM GMT
Nautical Twilight 7:02 AM GMT 5:54 PM GMT
Astronomical Twilight 6:18 AM GMT 6:38 PM GMT
Moon 10:58 AM GMT (1/19) 1:33 AM GMT (1/19)
Length of Visible Light 9h 18m
Length of Day
7h 51m
First Quarter, 55% of the Moon is Illuminated
Jan 19
First Quarter
Jan 27
Full
Feb 3
Last Quarter
Feb 10
New
Feb 17
First Quarter

Hourly Weather History & Observations

Time (GMT) Temp. Windchill Dew Point Humidity Pressure Visibility Wind Dir Wind Speed Gust Speed Precip Events Conditions
12:20 AM 32.0 °F 21.6 °F 26.6 °F 80% 29.53 in 6.2 mi East 15.0 mph - N/A   Partly Cloudy
12:50 AM 32.0 °F 22.1 °F 26.6 °F 80% 29.56 in - East 13.8 mph - N/A   Clear
1:20 AM 32.0 °F 21.6 °F 28.4 °F 87% 29.56 in - ENE 15.0 mph - N/A   Clear
1:50 AM 32.0 °F 23.0 °F 28.4 °F 87% 29.56 in 6.2 mi East 11.5 mph - N/A   Unknown
2:20 AM 33.8 °F 24.8 °F 28.4 °F 81% 29.56 in 6.2 mi East 12.7 mph - N/A   Partly Cloudy
2:50 AM 33.8 °F 24.8 °F 28.4 °F 81% 29.56 in 6.2 mi East 12.7 mph - N/A Rain Light Freezing Rain
3:20 AM 33.8 °F 24.8 °F 28.4 °F 81% 29.56 in 6.2 mi ENE 12.7 mph - N/A   Light Freezing Drizzle
3:50 AM 33.8 °F 24.8 °F 28.4 °F 81% 29.59 in 6.2 mi East 12.7 mph - N/A Snow Light Snow Grains
4:20 AM 33.8 °F 24.8 °F 28.4 °F 81% 29.59 in 6.2 mi East 12.7 mph - N/A Snow Light Snow Grains
4:50 AM 33.8 °F 26.4 °F 28.4 °F 81% 29.59 in 6.2 mi ENE 9.2 mph - N/A   Partly Cloudy
5:20 AM 33.8 °F 26.4 °F 28.4 °F 81% 29.59 in 6.2 mi East 9.2 mph - N/A   Mostly Cloudy
5:50 AM 33.8 °F 25.8 °F 26.6 °F 75% 29.59 in 6.2 mi ENE 10.4 mph - N/A   Scattered Clouds
6:20 AM 33.8 °F 26.4 °F 28.4 °F 81% 29.59 in 6.2 mi ENE 9.2 mph - N/A   Mostly Cloudy
6:50 AM 33.8 °F 25.8 °F 26.6 °F 75% 29.59 in - ENE 10.4 mph - N/A   Clear
7:20 AM 32.0 °F 23.0 °F 26.6 °F 80% 29.59 in - East 11.5 mph - N/A   Clear
7:50 AM 32.0 °F 24.8 °F 26.6 °F 80% 29.62 in - ENE 8.1 mph - N/A   Clear
8:20 AM 32.0 °F 22.5 °F 26.6 °F 80% 29.62 in - ENE 12.7 mph - N/A   Clear
8:50 AM 32.0 °F 23.0 °F 26.6 °F 80% 29.62 in 6.2 mi ENE 11.5 mph - N/A   Partly Cloudy
9:20 AM 32.0 °F 23.0 °F 26.6 °F 80% 29.65 in 6.2 mi ENE 11.5 mph - N/A   Partly Cloudy
9:50 AM 32.0 °F 23.6 °F 26.6 °F 80% 29.65 in 6.2 mi ENE 10.4 mph - N/A   Scattered Clouds
10:20 AM 33.8 °F 27.0 °F 28.4 °F 81% 29.68 in 6.2 mi East 8.1 mph - N/A   Scattered Clouds
10:50 AM 33.8 °F 25.3 °F 28.4 °F 81% 29.68 in 6.2 mi East 11.5 mph - N/A   Scattered Clouds
11:20 AM 35.6 °F 29.2 °F 28.4 °F 75% 29.68 in 6.2 mi East 8.1 mph - N/A   Scattered Clouds
11:50 AM 35.6 °F 27.5 °F 30.2 °F 81% 29.68 in 6.2 mi East 11.5 mph - N/A   Scattered Clouds
12:20 PM 37.4 °F 31.4 °F 30.2 °F 75% 29.65 in 6.2 mi East 8.1 mph - N/A   Scattered Clouds
12:50 PM 37.4 °F 29.8 °F 30.2 °F 75% 29.65 in 6.2 mi East 11.5 mph - N/A   Mostly Cloudy
1:20 PM 37.4 °F 30.3 °F 30.2 °F 75% 29.65 in 6.2 mi ENE 10.4 mph - N/A Rain Light Rain
1:50 PM 39.2 °F 33.0 °F 32.0 °F 75% 29.65 in 6.2 mi East 9.2 mph - N/A   Partly Cloudy
2:20 PM 37.4 °F 30.8 °F 30.2 °F 75% 29.65 in 6.2 mi NE 9.2 mph - N/A   Scattered Clouds
2:50 PM 35.6 °F 27.5 °F 30.2 °F 81% 29.65 in 6.2 mi ENE 11.5 mph - N/A   Scattered Clouds
3:20 PM 35.6 °F 29.2 °F 28.4 °F 75% 29.68 in 6.2 mi ENE 8.1 mph - N/A   Scattered Clouds
3:50 PM 35.6 °F 28.6 °F 28.4 °F 75% 29.68 in 6.2 mi ENE 9.2 mph - N/A   Partly Cloudy
4:20 PM 35.6 °F 28.6 °F 28.4 °F 75% 29.68 in 6.2 mi East 9.2 mph - N/A   Scattered Clouds
4:50 PM 33.8 °F 28.6 °F 28.4 °F 81% 29.68 in 6.2 mi East 5.8 mph - N/A   Scattered Clouds
5:20 PM 35.6 °F 28.0 °F 30.2 °F 81% 29.71 in 6.2 mi ENE 10.4 mph - N/A   Mostly Cloudy
5:50 PM 35.6 °F 29.2 °F 30.2 °F 81% 29.71 in 6.2 mi ENE 8.1 mph - N/A   Mostly Cloudy
6:20 PM 35.6 °F 29.9 °F 30.2 °F 81% 29.71 in 6.2 mi East 6.9 mph - N/A   Mostly Cloudy
6:50 PM 35.6 °F 28.6 °F 30.2 °F 81% 29.71 in 6.2 mi ENE 9.2 mph - N/A   Mostly Cloudy
7:20 PM 35.6 °F 29.2 °F 30.2 °F 81% 29.71 in 6.2 mi East 8.1 mph - N/A   Mostly Cloudy
7:50 PM 33.8 °F 27.0 °F 28.4 °F 81% 29.71 in 6.2 mi ENE 8.1 mph - N/A   Scattered Clouds
8:20 PM 33.8 °F 26.4 °F 30.2 °F 87% 29.71 in 6.2 mi East 9.2 mph - N/A   Scattered Clouds
8:50 PM 33.8 °F 26.4 °F 28.4 °F 81% 29.71 in 6.2 mi ENE 9.2 mph - N/A   Scattered Clouds
9:20 PM 33.8 °F 26.4 °F 30.2 °F 87% 29.71 in 6.2 mi ENE 9.2 mph - N/A   Scattered Clouds
9:50 PM 33.8 °F 27.0 °F 30.2 °F 87% 29.71 in 6.2 mi ENE 8.1 mph - N/A   Partly Cloudy
10:20 PM 33.8 °F 26.4 °F 30.2 °F 87% 29.71 in 6.2 mi ENE 9.2 mph - N/A   Partly Cloudy
10:50 PM 33.8 °F 26.4 °F 30.2 °F 87% 29.71 in - ENE 9.2 mph - N/A   Clear
11:20 PM 33.8 °F 26.4 °F 30.2 °F 87% 29.71 in 6.2 mi ENE 9.2 mph - N/A   Scattered Clouds
11:50 PM 33.8 °F 27.0 °F 30.2 °F 87% 29.71 in 6.2 mi ENE 8.1 mph - N/A   Scattered Clouds